Date String (YYYY-MM-DD hh:mm:ss) UTC,Instrument flags,Ambient pressure (hPa),Sample flow (lpm),Bypass flow (lpm),Sample temperature (°C),Ambient temperature (°C),ASC tube jacket temperature (°C),LED temperature (°C),Box temperature (°C),Sample RH (%),Span deviation,Mass concentration (μg/m³),Mass concentration (μg/m³),Mass concentration (μg/m³)
DateTimeUTC,F1_M11,P_M11,Q1_M11,Q2_M11,T1_M11,T2_M11,T3_M11,T4_M11,T5_M11,U1_M11,ZSPAN_M11,X0_M11,X2_M11,X1_M11
2023-04-05 15:00:00,,0827.6,5.02,0.00,22.7,21.0,00.0,31.2,24.2,09.7,0001.7,0013.94,0009.13,0008.70
2023-04-05 15:01:00,,0827.6,5.00,0.00,22.8,21.7,00.0,31.1,24.5,09.7,0001.6,0013.58,0009.14,0008.71
2023-04-05 15:02:00,,0827.5,5.00,0.00,22.9,23.2,00.0,31.1,24.9,09.6,0001.5,0013.61,0009.15,0008.71
2023-04-05 15:03:00,,0827.6,4.99,0.00,23.1,23.8,00.0,31.1,25.0,09.4,0001.8,0013.57,0009.14,0008.73
2023-04-05 15:04:00,,0827.6,4.99,0.00,23.1,23.6,00.0,31.2,24.9,09.4,0001.5,0013.69,0009.18,0008.75
2023-04-05 15:05:00,,0827.5,4.99,0.00,23.1,23.2,00.0,31.3,24.8,09.4,0001.4,0013.79,0009.23,0008.77
2023-04-05 15:06:00,,0827.7,5.01,0.00,23.1,22.9,00.0,31.3,24.7,09.4,0001.5,0013.30,0009.24,0008.78
2023-04-05 15:07:00,,0828.0,5.00,0.00,23.1,22.6,00.0,31.3,24.7,09.4,0001.7,0013.14,0009.23,0008.78
2023-04-05 15:08:00,,0827.5,5.00,0.00,23.0,22.3,00.0,31.3,24.6,09.4,0001.8,0012.41,0009.24,0008.79
2023-04-05 15:09:00,,0827.6,5.00,0.00,23.0,22.1,00.0,31.3,24.6,09.4,0001.8,0012.59,0009.24,0008.79
2023-04-05 15:10:00,,0827.7,5.00,0.00,23.0,22.0,00.0,31.3,24.5,09.5,0001.5,0013.97,0009.25,0008.79
2023-04-05 15:11:00,,0827.6,4.99,0.00,23.0,21.8,00.0,31.3,24.5,09.5,0001.7,0014.16,0009.23,0008.77
2023-04-05 15:12:00,,0827.6,5.00,0.00,23.0,21.7,00.0,31.3,24.5,09.4,0001.8,0014.16,0009.24,0008.75
2023-04-05 15:13:00,,0827.7,5.01,0.00,23.0,21.6,00.0,31.3,24.5,09.4,0001.9,0014.26,0009.28,0008.76
2023-04-05 15:14:00,,0827.7,4.99,0.00,22.9,21.5,00.0,31.3,24.5,09.4,0001.9,0014.46,0009.29,0008.76
2023-04-05 15:15:00,,0827.7,4.99,0.00,22.9,21.4,00.0,31.3,24.4,09.4,0001.9,0015.32,0009.32,0008.77
2023-04-05 15:16:00,,0827.7,5.01,0.00,22.9,21.4,00.0,31.3,24.4,09.5,0001.8,0016.36,0009.29,0008.76
2023-04-05 15:17:00,,0827.7,5.00,0.00,22.9,21.3,00.0,31.3,24.4,09.4,0001.8,0016.97,0009.27,0008.76
2023-04-05 15:18:00,,0827.7,5.00,0.00,22.9,21.3,00.0,31.3,24.4,09.5,0001.7,0017.14,0009.29,0008.77
2023-04-05 15:19:00,,0827.7,5.00,0.00,22.9,21.3,00.0,31.3,24.3,09.5,0001.6,0017.20,0009.31,0008.78
2023-04-05 15:20:00,,0827.7,5.00,0.00,22.8,21.2,00.0,31.3,24.3,09.5,0001.4,0017.13,0009.33,0008.78
2023-04-05 15:21:00,,0827.7,5.00,0.00,22.8,21.2,00.0,31.2,24.3,09.5,0001.3,0015.75,0009.35,0008.79
2023-04-05 15:22:00,,0827.7,4.99,0.00,22.8,21.2,00.0,31.2,24.3,09.5,0001.1,0015.62,0009.37,0008.81
2023-04-05 15:23:00,,0827.7,4.99,0.00,22.8,21.2,00.0,31.2,24.3,09.4,0000.8,0016.10,0009.38,0008.81
2023-04-05 15:24:00,,0827.8,5.01,0.00,22.8,21.2,00.0,31.2,24.3,09.5,0000.8,0016.31,0009.37,0008.82
2023-04-05 15:25:00,,0827.7,4.99,0.00,22.8,21.2,00.0,31.2,24.3,09.5,0000.4,0016.34,0009.38,0008.82
2023-04-05 15:26:00,,0827.7,5.00,0.00,22.8,21.1,00.0,31.2,24.3,09.5,0000.5,0016.02,0009.36,0008.80
2023-04-05 15:27:00,,0827.8,5.00,0.00,22.8,21.1,00.0,31.2,24.3,09.5,0000.3,0015.06,0009.35,0008.81
2023-04-05 15:28:00,,0827.8,5.01,0.00,22.8,21.1,00.0,31.2,24.3,09.6,0000.3,0014.47,0009.35,0008.81
2023-04-05 15:29:00,,0827.8,4.99,0.00,22.7,21.1,00.0,31.1,24.2,09.5,0000.2,0014.35,0009.35,0008.80
2023-04-05 15:30:00,,0827.8,5.00,0.00,22.7,21.1,00.0,31.1,24.2,09.5,0000.1,0014.48,0009.34,0008.79
2023-04-05 15:31:00,,0827.8,5.01,0.00,22.8,22.1,00.0,31.1,24.6,09.5,0000.3,0014.51,0009.34,0008.79
2023-04-05 15:32:00,,0827.8,4.99,0.00,23.0,23.3,00.0,31.1,25.0,09.4,0000.5,0014.57,0009.35,0008.80
2023-04-05 15:33:00,,0827.8,4.98,0.00,23.0,23.3,00.0,31.2,24.9,09.4,0000.7,0014.67,0009.38,0008.81
2023-04-05 15:34:00,,0827.8,5.00,0.00,23.0,23.1,00.0,31.2,24.8,09.3,0000.9,0014.26,0009.39,0008.80
2023-04-05 15:35:00,,0827.8,5.01,0.00,23.0,22.8,00.0,31.2,24.7,09.3,0001.3,0013.97,0009.38,0008.82
2023-04-05 15:36:00,,0827.7,5.00,0.00,23.0,22.6,00.0,31.3,24.7,09.3,0001.7,0013.83,0009.40,0008.84
2023-04-05 15:37:00,,0827.7,5.00,0.00,23.0,22.3,00.0,31.3,24.6,09.3,0001.7,0013.22,0009.42,0008.86
2023-04-05 15:38:00,,0827.8,4.99,0.00,23.0,22.1,00.0,31.3,24.6,09.4,0001.8,0013.17,0009.43,0008.88
2023-04-05 15:39:00,,0827.7,5.00,0.00,23.0,22.0,00.0,31.3,24.6,09.4,0001.7,0013.41,0009.46,0008.88
2023-04-05 15:40:00,,0827.8,5.00,0.00,23.0,21.9,00.0,31.3,24.6,09.4,0001.9,0013.83,0009.48,0008.90
2023-04-05 15:41:00,,0827.8,5.01,0.00,23.0,21.8,00.0,31.3,24.5,09.4,0001.8,0013.78,0009.50,0008.93
2023-04-05 15:42:00,,0827.7,4.99,0.00,23.0,21.7,00.0,31.3,24.5,09.3,0001.3,0013.79,0009.52,0008.95
2023-04-05 15:43:00,,0827.8,5.00,0.00,23.0,21.6,00.0,31.3,24.5,09.3,0001.0,0013.63,0009.49,0008.94
2023-04-05 15:44:00,,0827.8,4.99,0.00,23.0,21.6,00.0,31.3,24.5,09.3,0000.9,0013.69,0009.46,0008.94
2023-04-05 15:45:00,,0827.8,5.01,0.00,23.0,21.5,00.0,31.3,24.5,09.4,0001.1,0013.76,0009.48,0008.96
2023-04-05 15:46:00,,0827.8,5.01,0.00,22.9,21.5,00.0,31.3,24.5,09.4,0001.1,0013.78,0009.51,0008.97
2023-04-05 15:47:00,,0827.8,5.00,0.00,22.9,21.4,00.0,31.3,24.5,09.4,0001.3,0013.74,0009.50,0008.94
2023-04-05 15:48:00,,0827.8,4.99,0.00,22.9,21.4,00.0,31.3,24.5,09.4,0001.3,0013.70,0009.47,0008.91
2023-04-05 15:49:00,,0827.8,5.01,0.00,22.9,21.3,00.0,31.3,24.4,09.4,0001.5,0013.73,0009.47,0008.89
2023-04-05 15:50:00,,0827.9,5.00,0.00,22.9,21.3,00.0,31.3,24.4,09.4,0001.7,0013.96,0009.49,0008.90
2023-04-05 15:51:00,,0827.8,4.99,0.00,22.9,21.2,00.0,31.3,24.4,09.4,0001.5,0013.54,0009.48,0008.91
2023-04-05 15:52:00,,0827.8,5.00,0.00,22.9,21.2,00.0,31.3,24.4,09.4,0001.5,0013.62,0009.49,0008.89
2023-04-05 15:53:00,,0827.8,5.02,0.00,22.9,21.2,00.0,31.2,24.4,09.4,0002.0,0013.80,0009.47,0008.88
2023-04-05 15:54:00,,0827.8,5.00,0.00,22.8,21.2,00.0,31.2,24.4,09.5,0002.2,0014.01,0009.48,0008.89
2023-04-05 15:55:00,,0827.8,4.99,0.00,22.8,21.2,00.0,31.2,24.4,09.4,0002.3,0014.09,0009.52,0008.89
2023-04-05 15:56:00,,0827.8,5.00,0.00,22.8,21.2,00.0,31.2,24.4,09.4,0002.3,0014.04,0009.53,0008.89
2023-04-05 15:57:00,,0827.8,5.02,0.00,22.8,21.2,00.0,31.2,24.4,09.4,0002.2,0014.20,0009.51,0008.89
2023-04-05 15:58:00,,0827.8,4.99,0.00,22.8,21.2,00.0,31.2,24.4,09.4,0002.0,0014.18,0009.48,0008.90
2023-04-05 15:59:00,,0827.9,4.99,0.00,22.8,21.2,00.0,31.2,24.3,09.5,0001.8,0014.15,0009.49,0008.92
